This is the latest recevied weather packets stored in our database for station/object N0LTM. If no packets are shown the sender has not sent any weather packets the latest 10 day(s).
| Time | Temp. | Humidity | Pressure | Rain* | Wind** | Luminosity | Snow |
|---|---|---|---|---|---|---|---|
| 1777732555 | 9.44° C | 56% | 1020.3 hPa | 0 mm | - | - | - |
| 1777730463 | 8.33° C | 83% | 1020.3 hPa | 0 mm | - | - | - |
| 1777727156 | 3.89° C | 98% | 1020.3 hPa | 0 mm | - | - | - |
| 1777726856 | 3.33° C | 97% | 1020.3 hPa | 0 mm | - | - | - |
| 1777725655 | 1.67° C | 97% | 1020.2 hPa | 0 mm | - | - | - |
| 1777725352 | 1.67° C | 97% | 1020.1 hPa | 0 mm | - | - | - |
| 1777723262 | -1.11° C | 96% | 1019.9 hPa | 0 mm | - | - | - |
| 1777721456 | -2.78° C | 94% | 1019.7 hPa | 0 mm | - | - | - |
| 1777721154 | -2.78° C | 94% | 1019.8 hPa | 0 mm | - | - | - |
| 1777720252 | -2.78° C | 94% | 1019.6 hPa | 0 mm | - | - | - |
| 1777718456 | -2.78° C | 94% | 1019.5 hPa | 0 mm | - | - | - |
| 1777717251 | -2.78° C | 94% | 1019.4 hPa | 0 mm | - | - | - |
| 1777716653 | -2.78° C | 94% | 1019.4 hPa | 0 mm | - | - | - |
| 1777715752 | -2.22° C | 94% | 1019.4 hPa | 0 mm | - | - | - |
| 1777715156 | -2.22° C | 94% | 1019.4 hPa | 0 mm | - | - | - |
| 1777714852 | -2.78° C | 94% | 1019.4 hPa | 0 mm | - | - | - |
| 1777714268 | -2.22° C | 94% | 1019.3 hPa | 0 mm | - | - | - |
| 1777713354 | -2.22° C | 94% | 1019.3 hPa | 0 mm | - | - | - |
| 1777709753 | -1.67° C | 93% | 1019.2 hPa | 0 mm | - | - | - |
| 1777709453 | -1.67° C | 93% | 1019.2 hPa | 0 mm | - | - | - |
| 1777705553 | -1.11° C | 93% | 1019.5 hPa | 0 mm | - | - | - |
| 1777704654 | -1.11° C | 93% | 1019.6 hPa | 0 mm | - | - | - |
| 1777704057 | -1.11° C | 93% | 1019.7 hPa | 0 mm | - | - | - |
| 1777703458 | -1.67° C | 92% | 1019.9 hPa | 0 mm | - | - | - |
| 1777702558 | -1.11° C | 92% | 1019.7 hPa | 0 mm | - | - | - |
* Rain latest hour (hover to see other rain measurements)
** Current wind speed in m/s (hover to see current wind gust speed)